GW0191 Weather Reports


time (UTC)temp
F
wind
direction
speed
knots
gust
knots
rain 1hr
in
rain 24hr
in
rain mn
in
humidity
%
barometer
mb
20260506110149 75 184 0.0 1.7 0.00 0.00 0.00 93 1012.1
20260506105645 75 257 0.0 0.0 0.00 0.00 0.00 93 1011.9
20260506105142 75 146 0.9 0.9 0.00 0.00 0.00 93 1012.0
20260506104640 75 258 0.0 0.0 0.00 0.00 0.00 93 1012.0
20260506104137 75 164 0.0 0.9 0.00 0.00 0.00 92 1011.9
20260506103635 75 284 0.0 0.9 0.00 0.00 0.00 92 1011.9
20260506103131 75 262 0.0 0.0 0.00 0.00 0.00 92 1011.9
20260506102630 76 279 0.0 0.0 0.00 0.00 0.00 92 1012.0
20260506102127 76 193 0.0 1.7 0.00 0.00 0.00 92 1011.8
20260506101623 76 282 0.9 0.9 0.00 0.00 0.00 92 1012.0
20260506101120 76 214 0.9 2.6 0.00 0.00 0.00 92 1011.8
20260506100619 76 188 2.6 4.3 0.00 0.00 0.00 92 1011.9
20260506100116 76 200 0.0 2.6 0.00 0.00 0.00 91 1012.0
20260506095615 76 301 0.0 0.9 0.00 0.00 0.00 91 1011.9
20260506095111 76 215 1.7 2.6 0.00 0.00 0.00 91 1011.8
20260506094609 76 210 0.0 2.6 0.00 0.00 0.00 91 1011.8
20260506094106 76 262 0.9 1.7 0.00 0.00 0.00 91 1011.6
20260506093604 76 161 0.9 2.6 0.00 0.00 0.00 91 1011.4
20260506093101 76 170 0.0 0.9 0.00 0.00 0.00 90 1011.5
20260506092559 76 144 1.7 4.3 0.00 0.00 0.00 90 1011.3
20260506092056 76 153 2.6 4.3 0.00 0.00 0.00 90 1011.4
20260506091554 77 131 0.9 1.7 0.00 0.00 0.00 90 1011.6
20260506091051 77 293 0.0 1.7 0.00 0.00 0.00 90 1011.5
20260506090549 77 165 1.7 2.6 0.00 0.00 0.00 90 1011.5
20260506090045 77 141 0.9 1.7 0.00 0.00 0.00 90 1011.6
20260506085542 77 241 0.9 2.6 0.00 0.00 0.00 90 1011.7
20260506085038 77 156 2.6 4.3 0.00 0.00 0.00 90 1011.6
20260506084536 77 185 2.6 2.6 0.00 0.00 0.00 90 1011.5
20260506084031 77 355 0.9 1.7 0.00 0.00 0.00 90 1011.6
20260506083529 77 238 0.9 1.7 0.00 0.00 0.00 90 1011.9
20260506083026 77 187 0.9 2.6 0.00 0.00 0.00 89 1011.8
20260506082523 77 259 1.7 4.3 0.00 0.00 0.00 89 1011.8
20260506082019 77 229 0.9 2.6 0.00 0.00 0.00 89 1011.9
20260506081517 77 296 0.0 0.9 0.00 0.00 0.00 89 1012.1
20260506081014 77 212 2.6 2.6 0.00 0.00 0.00 89 1012.0
20260506080511 77 205 1.7 2.6 0.00 0.00 0.00 89 1012.2
20260506073455 77 278 0.9 0.9 0.00 0.00 0.00 89 1012.2
20260506072952 77 294 0.0 0.9 0.00 0.00 0.00 89 1012.4
20260506072449 77 304 0.0 0.9 0.00 0.00 0.00 89 1012.5
20260506071947 77 4 0.0 1.7 0.00 0.00 0.00 89 1012.4
20260506071445 77 199 0.9 1.7 0.00 0.00 0.00 89 1012.5
20260506070941 77 306 0.0 1.7 0.00 0.00 0.00 89 1012.4
20260506070438 77 196 0.9 2.6 0.00 0.00 0.00 89 1012.4
20260506062416 77 198 1.7 1.7 0.00 0.00 0.00 88 1012.6
20260506061912 77 180 0.9 2.6 0.00 0.00 0.00 89 1012.6
20260506061409 77 220 0.9 2.6 0.00 0.00 0.00 89 1012.8
20260506060906 77 347 0.9 0.9 0.00 0.00 0.00 89 1012.7
20260506060404 77 198 0.9 4.3 0.00 0.00 0.00 89 1012.8
20260506051336 77 141 1.7 1.7 0.00 0.00 0.00 88 1012.8
20260506050834 77 215 0.9 1.7 0.00 0.00 0.00 88 1012.9
20260506050331 77 297 1.7 5.2 0.00 0.00 0.00 88 1013.0
20260506044821 78 288 0.9 1.7 0.00 0.00 0.00 87 1012.7
20260506044319 78 152 1.7 4.3 0.00 0.00 0.00 87 1012.8
20260506043816 78 220 0.9 2.6 0.00 0.00 0.00 87 1012.8
20260506043314 78 153 1.7 2.6 0.00 0.00 0.00 87 1012.9
20260506042812 78 145 0.9 1.7 0.00 0.00 0.00 87 1012.8
20260506042311 78 252 0.0 1.7 0.00 0.00 0.00 86 1012.5
20260506041809 78 309 1.7 7.0 0.00 0.00 0.00 86 1012.6
20260506041305 78 327 0.9 4.3 0.00 0.00 0.00 86 1012.8
20260506040802 78 122 2.6 5.2 0.00 0.00 0.00 86 1012.5
20260506040259 78 252 0.9 4.3 0.00 0.00 0.00 86 1012.5
20260506035756 78 131 0.9 2.6 0.00 0.00 0.00 86 1012.4
20260506035253 78 71 0.9 4.3 0.00 0.00 0.00 86 1012.3
20260506034750 78 252 0.9 5.2 0.00 0.00 0.00 86 1012.1
20260506034248 78 305 0.9 2.6 0.00 0.00 0.00 86 1012.2
20260506033744 78 311 0.9 1.7 0.00 0.00 0.00 85 1012.3
20260506033241 78 161 0.9 2.6 0.00 0.00 0.00 85 1012.5
20260506032738 78 192 1.7 2.6 0.00 0.00 0.00 85 1012.3
20260506032235 78 159 1.7 2.6 0.00 0.00 0.00 85 1012.1
20260506031732 78 121 0.9 2.6 0.00 0.00 0.00 85 1012.0
20260506031230 78 200 1.7 5.2 0.00 0.00 0.00 85 1011.9
20260506030728 79 309 0.9 2.6 0.00 0.00 0.00 85 1012.0
20260506030225 79 228 0.9 1.7 0.00 0.00 0.00 85 1012.1
20260506025721 79 214 1.7 5.2 0.00 0.00 0.00 85 1012.1
20260506025218 79 215 1.7 2.6 0.00 0.00 0.00 84 1011.8
20260506024715 79 164 2.6 2.6 0.00 0.00 0.00 84 1011.8
20260506024211 79 121 1.7 2.6 0.00 0.00 0.00 85 1011.7
20260506023708 79 230 0.0 1.7 0.00 0.00 0.00 84 1011.6
20260506023205 79 124 1.7 2.6 0.00 0.00 0.00 84 1011.4
20260506022702 79 211 1.7 2.6 0.00 0.00 0.00 84 1011.3
20260506022159 79 189 0.0 1.7 0.00 0.00 0.00 84 1011.3
20260506021657 79 207 2.6 4.3 0.00 0.00 0.00 84 1011.5
20260506021154 79 264 2.6 4.3 0.00 0.00 0.00 84 1011.2
20260506020651 79 210 0.9 1.7 0.00 0.00 0.00 84 1011.2
20260506020149 79 295 0.9 0.9 0.00 0.00 0.00 83 1011.3
20260506015646 79 175 0.9 2.6 0.00 0.00 0.00 83 1011.2
20260506015143 79 150 1.7 4.3 0.00 0.00 0.00 83 1011.2
20260506014635 79 188 1.7 2.6 0.00 0.00 0.00 83 1010.9
20260506014130 79 112 1.7 2.6 0.00 0.00 0.00 83 1010.9
20260506013629 80 164 0.9 2.6 0.00 0.00 0.00 83 1011.0
20260506013125 80 160 0.9 5.2 0.00 0.00 0.00 82 1010.8
20260506012621 80 195 2.6 4.3 0.00 0.00 0.00 82 1010.8
20260506012118 80 220 0.9 5.2 0.00 0.00 0.00 82 1010.6
20260506011615 80 240 0.9 2.6 0.00 0.00 0.00 82 1010.5
20260506011111 80 238 2.6 2.6 0.00 0.00 0.00 82 1010.4
20260506010606 80 341 0.9 1.7 0.00 0.00 0.00 82 1010.3
20260506005559 80 217 0.0 4.3 0.00 0.00 0.00 81 1010.3
20260506005055 80 264 0.9 0.9 0.00 0.00 0.00 81 1010.4
20260506004552 80 303 0.0 4.3 0.00 0.00 0.00 81 1010.3
20260506004049 80 343 2.6 4.3 0.00 0.00 0.00 81 1010.5
20260506003545 81 15 0.0 0.9 0.00 0.00 0.00 81 1010.3
20260506003042 81 227 2.6 4.3 0.00 0.00 0.00 81 1010.2
20260506002538 81 159 0.9 4.3 0.00 0.00 0.00 81 1010.4
20260506002034 81 173 1.7 6.1 0.00 0.00 0.00 81 1010.1
20260506001530 81 213 0.9 1.7 0.00 0.00 0.00 81 1010.0
20260506001028 81 68 1.7 2.6 0.00 0.00 0.00 81 1010.1
20260506000525 81 198 0.9 2.6 0.00 0.00 0.00 81 1010.2
20260506000023 81 159 2.6 4.3 0.00 0.00 0.00 81 1010.3
20260505235521 81 295 0.9 4.3 0.00 0.00 0.00 81 1010.1
20260505235017 82 150 0.9 2.6 0.00 0.00 0.00 81 1009.9
20260505234514 82 134 1.7 2.6 0.00 0.00 0.00 80 1010.0
20260505234011 82 291 0.0 2.6 0.00 0.00 0.00 79 1009.9
20260505233508 82 35 0.0 1.7 0.00 0.00 0.00 79 1010.0
20260505233006 82 195 0.9 1.7 0.00 0.00 0.00 79 1010.0
20260505232503 82 110 0.9 4.3 0.00 0.00 0.00 79 1010.1
20260505232001 82 89 2.6 6.1 0.00 0.00 0.00 79 1009.9
20260505231457 82 285 0.9 1.7 0.00 0.00 0.00 79 1009.9
20260505230956 83 140 1.7 2.6 0.00 0.00 0.00 78 1010.0
20260505230453 83 178 2.6 2.6 0.00 0.00 0.00 78 1010.0
20260505225949 83 10 0.9 1.7 0.00 0.00 0.00 78 1010.2
20260505225446 83 220 0.9 1.7 0.00 0.00 0.00 77 1010.2
20260505224942 83 212 3.5 5.2 0.00 0.00 0.00 77 1010.1
20260505224439 83 302 0.9 5.2 0.00 0.00 0.00 76 1009.9
20260505223937 84 193 3.5 5.2 0.00 0.00 0.00 76 1010.0
20260505223433 84 109 0.9 4.3 0.00 0.00 0.00 76 1010.0
20260505222930 84 178 2.6 4.3 0.00 0.00 0.00 75 1009.9
20260505222426 84 277 2.6 6.1 0.00 0.00 0.00 75 1010.1
20260505221922 84 290 2.6 4.3 0.00 0.00 0.00 75 1010.0
20260505221420 84 224 0.9 4.3 0.00 0.00 0.00 76 1010.3
20260505220917 84 188 3.5 5.2 0.00 0.00 0.00 75 1010.3
20260505220413 84 169 2.6 8.7 0.00 0.00 0.00 75 1010.3
20260505215911 84 258 1.7 1.7 0.00 0.00 0.00 76 1010.2
20260505215409 84 138 0.9 5.2 0.00 0.00 0.00 76 1010.4
20260505214907 84 281 0.9 6.1 0.00 0.00 0.00 76 1010.5
20260505214404 84 198 2.6 7.8 0.00 0.00 0.00 76 1010.4
20260505213901 84 229 1.7 7.0 0.00 0.00 0.00 76 1010.8
20260505213359 84 302 0.0 2.6 0.00 0.00 0.00 77 1010.7
20260505212855 84 287 0.0 5.2 0.00 0.00 0.00 76 1010.7
20260505212352 84 264 2.6 8.7 0.00 0.00 0.00 75 1010.6
20260505211848 84 117 2.6 7.0 0.00 0.00 0.00 76 1010.9
20260505211346 84 192 3.5 4.3 0.00 0.00 0.00 76 1010.9
20260505210842 84 164 2.6 2.6 0.00 0.00 0.00 76 1010.9
20260505210339 84 267 1.7 5.2 0.00 0.00 0.00 76 1010.8
20260505205836 85 239 0.9 5.2 0.00 0.00 0.00 74 1011.0
20260505205334 85 131 1.7 4.3 0.00 0.00 0.00 74 1010.8
20260505204831 86 222 2.6 6.1 0.00 0.00 0.00 73 1011.1
20260505204329 86 258 1.7 4.3 0.00 0.00 0.00 74 1011.0
20260505203826 85 215 1.7 2.6 0.00 0.00 0.00 74 1011.0
20260505203322 85 175 0.9 6.1 0.00 0.00 0.00 75 1011.1
20260505202818 85 36 4.3 7.8 0.00 0.00 0.00 75 1011.1
20260505202315 85 325 0.9 2.6 0.00 0.00 0.00 75 1011.3
20260505201811 85 326 1.7 4.3 0.00 0.00 0.00 75 1011.5
20260505201309 84 146 1.7 7.0 0.00 0.00 0.00 76 1011.4
20260505200807 84 309 0.9 5.2 0.00 0.00 0.00 77 1011.5
20260505200304 83 195 1.7 1.7 0.00 0.00 0.00 77 1011.6
20260505195759 84 202 2.6 4.3 0.00 0.00 0.00 77 1011.6
20260505195257 84 154 1.7 4.3 0.00 0.00 0.00 76 1011.8
20260505194754 84 348 0.9 6.1 0.00 0.00 0.00 76 1011.8
20260505194251 84 176 1.7 5.2 0.00 0.00 0.00 76 1011.9
20260505193746 84 7 1.7 1.7 0.00 0.00 0.00 76 1012.0
20260505193244 84 191 1.7 6.1 0.00 0.00 0.00 76 1012.0
20260505192742 84 194 2.6 4.3 0.00 0.00 0.00 76 1012.0
20260505192239 84 181 1.7 2.6 0.00 0.00 0.00 77 1012.0
20260505191737 83 200 1.7 4.3 0.00 0.00 0.00 77 1012.1
20260505191236 83 308 1.7 5.2 0.00 0.00 0.00 78 1012.2
20260505190731 82 16 0.0 4.3 0.00 0.00 0.00 80 1012.2
20260505190232 82 189 0.9 1.7 0.00 0.00 0.00 80 1012.3
20260505185728 82 291 0.9 6.1 0.00 0.00 0.00 79 1012.1
20260505185225 82 176 3.5 7.0 0.00 0.00 0.00 78 1012.4
20260505184721 83 128 2.6 4.3 0.00 0.00 0.00 78 1012.3
20260505184218 83 294 1.7 1.7 0.00 0.00 0.00 77 1012.4
20260505183715 83 226 0.9 4.3 0.00 0.00 0.00 78 1012.4
20260505183213 83 35 1.7 4.3 0.00 0.00 0.00 78 1012.3
20260505182708 83 296 0.9 0.9 0.00 0.00 0.00 79 1012.4
20260505182206 82 123 0.0 4.3 0.00 0.00 0.00 79 1012.4
20260505181702 82 136 1.7 7.8 0.00 0.00 0.00 79 1012.4
20260505181200 81 316 0.9 4.3 0.00 0.00 0.00 80 1012.5
20260505180656 81 200 3.5 7.0 0.00 0.00 0.00 80 1012.6
20260505180153 81 150 2.6 8.7 0.00 0.00 0.00 80 1012.6
20260505175649 81 280 0.9 5.2 0.00 0.00 0.00 81 1012.6
20260505175145 80 257 1.7 1.7 0.00 0.00 0.00 81 1012.6
20260505174642 80 211 2.6 2.6 0.00 0.00 0.00 81 1012.8
20260505174138 80 123 1.7 4.3 0.00 0.00 0.00 82 1012.6
20260505173635 80 190 2.6 5.2 0.00 0.00 0.00 81 1012.8
20260505173132 81 148 0.0 2.6 0.00 0.00 0.00 80 1012.9
20260505172630 81 243 0.9 1.7 0.00 0.00 0.00 80 1012.8
20260505172126 81 319 0.9 2.6 0.00 0.00 0.00 80 1012.9
20260505171621 81 121 2.6 6.1 0.00 0.00 0.00 80 1012.9
20260505171118 80 115 0.9 6.1 0.00 0.00 0.00 81 1012.9
20260505170615 80 344 0.9 1.7 0.00 0.00 0.00 81 1013.1
20260505170111 80 271 1.7 7.8 0.00 0.00 0.00 81 1013.0
20260505165606 80 189 0.0 1.7 0.00 0.00 0.00 82 1013.3
20260505165103 79 147 0.9 7.0 0.00 0.00 0.00 82 1013.1
20260505164558 79 4 0.9 1.7 0.00 0.00 0.00 83 1013.2
20260505164056 79 191 5.2 7.0 0.00 0.00 0.00 83 1013.1
20260505163555 79 270 1.7 5.2 0.00 0.00 0.00 83 1013.0
20260505163051 78 306 0.9 7.0 0.00 0.00 0.00 84 1013.1
20260505162549 78 187 5.2 6.1 0.00 0.00 0.00 83 1013.2
20260505162047 78 163 1.7 4.3 0.00 0.00 0.00 83 1012.7
20260505161544 79 125 1.7 4.3 0.00 0.00 0.00 83 1012.8
20260505161041 79 246 1.7 5.2 0.00 0.00 0.00 82 1013.0
20260505160539 79 342 1.7 6.1 0.00 0.00 0.00 83 1013.0
20260505153015 77 141 0.9 6.1 0.00 0.00 0.00 84 1012.8
20260505152512 77 137 0.9 2.6 0.00 0.00 0.00 84 1012.9
20260505152008 77 186 0.9 5.2 0.00 0.00 0.00 84 1012.7
20260505151503 77 238 0.9 0.9 0.00 0.00 0.00 84 1012.8
20260505151000 77 169 1.7 2.6 0.00 0.00 0.00 84 1012.8
20260505150457 77 287 0.9 5.2 0.00 0.00 0.00 84 1012.9
20260505140427 76 303 1.7 1.7 0.00 0.00 0.00 85 1012.3
20260505124841 74 186 0.0 0.9 0.00 0.00 0.00 88 1011.8
20260505124337 73 241 0.0 2.6 0.00 0.00 0.00 89 1012.2
20260505123833 73 286 0.0 1.7 0.00 0.00 0.00 89 1012.2
20260505123330 73 185 0.9 0.9 0.00 0.00 0.00 89 1012.3
20260505122826 73 182 0.9 1.7 0.00 0.00 0.00 89 1012.3
20260505122324 73 157 0.0 1.7 0.00 0.00 0.00 89 1012.3
20260505121820 72 290 0.0 1.7 0.00 0.00 0.00 90 1012.4
20260505121318 72 162 0.9 0.9 0.00 0.00 0.00 90 1012.3
20260505120813 72 157 0.0 1.7 0.00 0.00 0.00 90 1012.1
20260505120309 72 290 0.9 2.6 0.00 0.00 0.00 90 1012.1
20260505115808 72 191 0.9 1.7 0.00 0.00 0.00 90 1012.0
20260505115306 72 235 0.9 1.7 0.00 0.00 0.00 90 1011.6
20260505114803 72 204 0.9 1.7 0.00 0.00 0.00 90 1011.8
20260505114300 72 180 0.9 2.6 0.00 0.00 0.00 89 1011.9
20260505113756 72 290 0.0 1.7 0.00 0.00 0.00 89 1012.1
20260505113253 72 298 0.0 4.3 0.00 0.00 0.00 89 1012.1
20260505112748 72 178 0.0 0.9 0.00 0.00 0.00 89 1012.1
20260505112246 72 303 0.0 1.7 0.00 0.00 0.00 89 1011.8
20260505111741 72 229 0.0 0.9 0.00 0.00 0.00 89 1012.0
20260505111237 72 143 0.9 0.9 0.00 0.00 0.00 89 1011.8
20260505110733 72 180 0.9 1.7 0.00 0.00 0.00 89 1011.9
20260505110231 72 188 0.9 1.7 0.00 0.00 0.00 89 1011.6